This is the latest recevied weather packets stored in our database for station/object OH2MUI. If no packets are shown the sender has not sent any weather packets the latest 10 day(s).
| Time | Temp. | Humidity | Pressure | Rain* | Wind** | Luminosity | Snow |
|---|---|---|---|---|---|---|---|
| 1777878087 | 10° C | 65% | 1005.5 hPa | 0 mm | - | - | - |
| 1777878084 | 10° C | 65% | 1005.5 hPa | 0 mm | - | - | - |
| 1777877054 | 8.89° C | 67% | 1005.7 hPa | 0 mm | - | - | - |
| 1777875889 | 8.89° C | 66% | 1005.6 hPa | 0 mm | - | - | - |
| 1777874776 | 7.78° C | 67% | 1006 hPa | 0 mm | - | - | - |
| 1777873739 | 7.22° C | 68% | 1006.2 hPa | 0 mm | - | - | - |
| 1777872709 | 7.22° C | 70% | 1006.5 hPa | 0 mm | - | - | - |
| 1777871620 | 6.67° C | 70% | 1006.7 hPa | 0 mm | - | - | - |
| 1777870424 | 6.67° C | 71% | 1006.9 hPa | 0 mm | - | - | - |
| 1777869264 | 6.11° C | 72% | 1006.8 hPa | 0 mm | - | - | - |
| 1777868224 | 6.11° C | 73% | 1007.1 hPa | 0 mm | - | - | - |
| 1777867111 | 5.56° C | 73% | 1007.2 hPa | 0 mm | - | - | - |
| 1777866092 | 5.56° C | 75% | 1007.4 hPa | 0 mm | - | - | - |
| 1777864954 | 5.56° C | 75% | 1007.4 hPa | 0 mm | - | - | - |
| 1777863931 | 5.56° C | 72% | 1007.5 hPa | 0 mm | - | - | - |
| 1777862883 | 5.56° C | 70% | 1007.7 hPa | 0 mm | - | - | - |
| 1777861844 | 5.56° C | 67% | 1007.9 hPa | 0 mm | - | - | - |
| 1777860698 | 6.11° C | 66% | 1008.1 hPa | 0 mm | - | - | - |
| 1777859574 | 6.11° C | 67% | 1008.1 hPa | 0 mm | - | - | - |
| 1777858374 | 6.67° C | 65% | 1008.3 hPa | 0 mm | - | - | - |
| 1777857359 | 6.67° C | 64% | 1008.4 hPa | 0 mm | - | - | - |
| 1777856384 | 7.22° C | 63% | 1008.5 hPa | 0 mm | - | - | - |
| 1777855349 | 7.22° C | 63% | 1008.6 hPa | 0 mm | - | - | - |
| 1777854159 | 7.78° C | 62% | 1008.7 hPa | 0 mm | - | - | - |
| 1777853179 | 7.78° C | 61% | 1008.7 hPa | 0 mm | - | - | - |
* Rain latest hour (hover to see other rain measurements)
** Current wind speed in m/s (hover to see current wind gust speed)